User: anonymous   Login
Location: Haliburton Scout Reserve
(45.0900°N, 78.3200°W)
Time: 10:30:34
(UTC-05:00)
Language:

LilacSat-2 - Orbit

View from above orbital plane
View from above orbital plane
View from above satellite
View from above satellite

Ground track
Ground track

The orbit data is extracted from the following two-line orbital elements,

1 40908U 15049K   23345.45991866  .00004575  00000-0  20038-3 0  9992
2 40908  97.5268 348.3745 0011516 296.2899  63.7154 15.22478369454740
Epoch (UTC): 11 December 2023 11:02:16
Eccentricity: 0.0011516
inclination: 97.5268°
perigee height: 490 km
apogee height: 506 km
right ascension of ascending node: 348.3745°
argument of perigee: 296.2899°
revolutions per day: 15.22478369
mean anomaly at epoch: 63.7154°
orbit number at epoch: 45474

The dashed part of the orbit path shows where the satellite is in the earth's shadow,  

DLR